Location: Calvera
(42.3882°N, 0.6137°E)
Time: 13:46:45
(UTC+00:00)

Cosmos 1627 Rocket - Pass Details

Date: 28 October 2020
Orbit: 950 x 1005 km, 82.9° (Epoch: 24 November)

Event Time Altitude Azimuth Distance (km) Brightness Sun altitude
Rises 05:00:54 0° 189° (S) 3,714 7.5 -16.3°
Reaches altitude 10° 05:03:26 10° 191° (S) 2,770 6.8 -15.9°
Maximum altitude 05:09:49 79° 278° (W) 1,027 4.5 -14.7°
Drops below altitude 10° 05:16:14 10° 5° (N) 2,780 6.9 -13.5°
Sets 05:18:46 0° 7° (N) 3,728 7.6 -13.0°
